Weather in Vyazhi-Zaverkh

Russia / Oryol Oblast     53°01′18″N   36°57′06″E
temp.,
°C
wind,
m/s
gust,
m/s
humid.,
%
clouds,
%
prec.,
mm/h
press.,
hPa
HPBL,
m
9 may, sun
sun900:00+8sw3698100 0.0 1004412
03:00+5wnw81396100 1.1 1006875
06:00+3nw81597100 1.3 1009740
09:00+4nw81289100 1.6 1012940
12:00+7nw91179100 0.3 10141253
15:00+7nw9117569 0.8 10171325
18:00+8nnw51170100 0.3 10181628
21:00+5nw49825 0.3 1020170
10 may, mon
mon1000:00+3nw410865 0.0 1022193
03:00+2nw311875 0.0 1024201
06:00+3nnw413820 0.0 1025281
09:00+9n711590 0.0 10261325
12:00+11n811484 0.0 10251584
15:00+12nne811465 0.0 10241577
18:00+11nne81362100 0.0 10241178
21:00+9nne7146199 0.0 1024703
11 may, tue
tue1100:00+8nne7166886 0.0 1024547
03:00+8nne6147794 0.0 1023467
06:00+8nne6168391 0.0 1022445
09:00+10ne7158378 0.0 1022508
12:00+17ene9136916 0.0 10211062
15:00+14ese71383100 0.6 10221004
18:00+12ese598365 0.4 1024960
21:00+8ese48893 0.4 1025169
12 may, wed
wed1200:00+6ese37930 0.0 1027129
03:00+5e229348 0.0 102631
06:00+6ne379297 0.0 1026177
09:00+11ne567295 0.0 1024670
12:00+9ene4591100 1.4 1022433
15:00+8s2287100 5.7 1020369
18:00+9se45818 0.5 1020549
21:00+7e5139314 0.5 1019365
13 may, thu
thu1300:00+9ese51393100 0.8 1018459
03:00+9ese5109848 4.7 1018334
06:00+9ese599757 1.4 1018301
09:00+13sse5883100 1.4 1018789
12:00+17s586326 0.2 10181603
15:00+19sse686019 0.3 10171758
18:00+17sse487536 0.1 1018627
21:00+14se3384100 0.1 101839